Time,TemperatureF,DewpointF,PressureIn,WindDirection,WindDirectionDegrees,WindSpeedMPH,WindSpeedGustMPH,Humidity,HourlyPrecipIn,Conditions,Clouds,dailyrainin,SoftwareType,DateUTC
2013-02-25 00:00:00,42.0,32.0,-100.00,North,-999,-999.0,-999.0,68,-99.99,,,-99.99,,2013-02-25 00:00:00,
2013-02-25 00:41:00,42.0,32.0,-100.00,North,-999,-999.0,-999.0,68,-99.99,,,-99.99,,2013-02-25 00:41:00,
2013-02-25 00:51:00,42.0,32.0,-100.00,North,-999,-999.0,-999.0,68,-99.99,,,-99.99,,2013-02-25 00:51:00,
2013-02-25 01:00:00,39.0,34.0,-100.00,North,-999,-999.0,-999.0,80,-99.99,,,-99.99,,2013-02-25 01:00:00,
2013-02-25 01:41:00,39.0,34.0,-100.00,North,-999,-999.0,-999.0,80,-99.99,,,-99.99,,2013-02-25 01:41:00,
2013-02-25 01:51:00,39.0,34.0,-100.00,North,-999,-999.0,-999.0,80,-99.99,,,-99.99,,2013-02-25 01:51:00,
2013-02-25 02:00:00,38.0,30.0,-100.00,North,-999,-999.0,-999.0,73,-99.99,,,-99.99,,2013-02-25 02:00:00,
2013-02-25 02:41:00,38.0,30.0,-100.00,North,-999,-999.0,-999.0,73,-99.99,,,-99.99,,2013-02-25 02:41:00,
2013-02-25 02:51:00,38.0,30.0,-100.00,North,-999,-999.0,-999.0,73,-99.99,,,-99.99,,2013-02-25 02:51:00,
2013-02-25 03:00:00,38.0,29.0,-100.00,North,-999,-999.0,-999.0,68,-99.99,,,-99.99,,2013-02-25 03:00:00,
2013-02-25 03:41:00,38.0,29.0,-100.00,North,-999,-999.0,-999.0,68,-99.99,,,-99.99,,2013-02-25 03:41:00,
2013-02-25 03:51:00,38.0,29.0,-100.00,North,-999,-999.0,-999.0,68,-99.99,,,-99.99,,2013-02-25 03:51:00,
2013-02-25 04:00:00,40.0,28.0,-100.00,North,-999,-999.0,-999.0,61,-99.99,,,-99.99,,2013-02-25 04:00:00,
2013-02-25 04:41:00,40.0,28.0,-100.00,North,-999,-999.0,-999.0,61,-99.99,,,-99.99,,2013-02-25 04:41:00,
2013-02-25 04:51:00,40.0,28.0,-100.00,North,-999,-999.0,-999.0,61,-99.99,,,-99.99,,2013-02-25 04:51:00,
2013-02-25 05:00:00,41.0,30.0,-100.00,North,-999,-999.0,-999.0,64,-99.99,,,-99.99,,2013-02-25 05:00:00,
2013-02-25 05:41:00,41.0,30.0,-100.00,North,-999,-999.0,-999.0,64,-99.99,,,-99.99,,2013-02-25 05:41:00,
2013-02-25 05:52:00,41.0,30.0,-100.00,North,-999,-999.0,-999.0,64,-99.99,,,-99.99,,2013-02-25 05:52:00,
2013-02-25 06:00:00,35.0,31.0,-100.00,North,-999,-999.0,-999.0,83,-99.99,,,-99.99,,2013-02-25 06:00:00,
2013-02-25 06:41:00,35.0,31.0,-100.00,North,-999,-999.0,-999.0,83,-99.99,,,-99.99,,2013-02-25 06:41:00,
2013-02-25 06:51:00,35.0,31.0,-100.00,North,-999,-999.0,-999.0,83,-99.99,,,-99.99,,2013-02-25 06:51:00,
2013-02-25 07:00:00,35.0,31.0,-100.00,North,-999,-999.0,-999.0,85,-99.99,,,-99.99,,2013-02-25 07:00:00,
2013-02-25 07:41:00,35.0,31.0,-100.00,North,-999,-999.0,-999.0,85,-99.99,,,-99.99,,2013-02-25 07:41:00,
2013-02-25 07:51:00,35.0,31.0,-100.00,North,-999,-999.0,-999.0,85,-99.99,,,-99.99,,2013-02-25 07:51:00,
2013-02-25 08:00:00,35.0,32.0,-100.00,North,-999,-999.0,-999.0,86,-99.99,,,-99.99,,2013-02-25 08:00:00,
2013-02-25 08:41:00,35.0,32.0,-100.00,North,-999,-999.0,-999.0,86,-99.99,,,-99.99,,2013-02-25 08:41:00,
2013-02-25 08:51:00,35.0,32.0,-100.00,North,-999,-999.0,-999.0,86,-99.99,,,-99.99,,2013-02-25 08:51:00,
2013-02-25 09:00:00,40.0,35.0,-100.00,North,-999,-999.0,-999.0,82,-99.99,,,-99.99,,2013-02-25 09:00:00,
2013-02-25 09:41:00,40.0,35.0,-100.00,North,-999,-999.0,-999.0,82,-99.99,,,-99.99,,2013-02-25 09:41:00,
2013-02-25 09:51:00,40.0,35.0,-100.00,North,-999,-999.0,-999.0,82,-99.99,,,-99.99,,2013-02-25 09:51:00,
2013-02-25 10:00:00,42.0,32.0,-100.00,North,-999,-999.0,-999.0,66,-99.99,,,-99.99,,2013-02-25 10:00:00,
2013-02-25 10:41:00,42.0,32.0,-100.00,North,-999,-999.0,-999.0,66,-99.99,,,-99.99,,2013-02-25 10:41:00,
2013-02-25 10:52:00,42.0,32.0,-100.00,North,-999,-999.0,-999.0,66,-99.99,,,-99.99,,2013-02-25 10:52:00,
2013-02-25 11:00:00,42.0,33.0,-100.00,North,-999,-999.0,-999.0,71,-99.99,,,-99.99,,2013-02-25 11:00:00,
2013-02-25 11:41:00,42.0,33.0,-100.00,North,-999,-999.0,-999.0,71,-99.99,,,-99.99,,2013-02-25 11:41:00,
2013-02-25 11:52:00,42.0,33.0,-100.00,North,-999,-999.0,-999.0,71,-99.99,,,-99.99,,2013-02-25 11:52:00,
2013-02-25 12:00:00,43.0,35.0,-100.00,North,-999,-999.0,-999.0,72,-99.99,,,-99.99,,2013-02-25 12:00:00,
2013-02-25 12:41:00,43.0,35.0,-100.00,North,-999,-999.0,-999.0,72,-99.99,,,-99.99,,2013-02-25 12:41:00,
2013-02-25 12:52:00,43.0,35.0,-100.00,North,-999,-999.0,-999.0,72,-99.99,,,-99.99,,2013-02-25 12:52:00,
2013-02-25 13:00:00,43.0,34.0,-100.00,North,-999,-999.0,-999.0,70,-99.99,,,-99.99,,2013-02-25 13:00:00,
2013-02-25 13:41:00,43.0,34.0,-100.00,North,-999,-999.0,-999.0,70,-99.99,,,-99.99,,2013-02-25 13:41:00,
2013-02-25 13:51:00,43.0,34.0,-100.00,North,-999,-999.0,-999.0,70,-99.99,,,-99.99,,2013-02-25 13:51:00,
2013-02-25 15:00:00,42.0,35.0,-100.00,North,-999,-999.0,-999.0,74,-99.99,,,-99.99,,2013-02-25 15:00:00,
2013-02-25 15:41:00,42.0,35.0,-100.00,North,-999,-999.0,-999.0,74,-99.99,,,-99.99,,2013-02-25 15:41:00,
2013-02-25 15:51:00,42.0,35.0,-100.00,North,-999,-999.0,-999.0,74,-99.99,,,-99.99,,2013-02-25 15:51:00,
2013-02-25 16:00:00,42.0,34.0,-100.00,North,-999,-999.0,-999.0,72,-99.99,,,-99.99,,2013-02-25 16:00:00,
2013-02-25 16:41:00,42.0,34.0,-100.00,North,-999,-999.0,-999.0,72,-99.99,,,-99.99,,2013-02-25 16:41:00,
2013-02-25 16:51:00,42.0,34.0,-100.00,North,-999,-999.0,-999.0,72,-99.99,,,-99.99,,2013-02-25 16:51:00,
2013-02-25 17:00:00,42.0,35.0,-100.00,North,-999,-999.0,-999.0,73,-99.99,,,-99.99,,2013-02-25 17:00:00,
2013-02-25 17:41:00,42.0,35.0,-100.00,North,-999,-999.0,-999.0,73,-99.99,,,-99.99,,2013-02-25 17:41:00,
2013-02-25 17:51:00,42.0,35.0,-100.00,North,-999,-999.0,-999.0,73,-99.99,,,-99.99,,2013-02-25 17:51:00,
2013-02-25 18:00:00,42.0,34.0,-100.00,North,-999,-999.0,-999.0,74,-99.99,,,-99.99,,2013-02-25 18:00:00,
2013-02-25 18:41:00,42.0,34.0,-100.00,North,-999,-999.0,-999.0,74,-99.99,,,-99.99,,2013-02-25 18:41:00,
2013-02-25 18:51:00,42.0,34.0,-100.00,North,-999,-999.0,-999.0,74,-99.99,,,-99.99,,2013-02-25 18:51:00,
2013-02-25 19:00:00,41.0,34.0,-100.00,North,-999,-999.0,-999.0,75,-99.99,,,-99.99,,2013-02-25 19:00:00,
2013-02-25 19:41:00,41.0,34.0,-100.00,North,-999,-999.0,-999.0,75,-99.99,,,-99.99,,2013-02-25 19:41:00,
2013-02-25 19:52:00,41.0,34.0,-100.00,North,-999,-999.0,-999.0,75,-99.99,,,-99.99,,2013-02-25 19:52:00,
2013-02-25 20:00:00,40.0,34.0,-100.00,North,-999,-999.0,-999.0,78,-99.99,,,-99.99,,2013-02-25 20:00:00,
2013-02-25 20:41:00,40.0,34.0,-100.00,North,-999,-999.0,-999.0,78,-99.99,,,-99.99,,2013-02-25 20:41:00,
2013-02-25 20:52:00,40.0,34.0,-100.00,North,-999,-999.0,-999.0,78,-99.99,,,-99.99,,2013-02-25 20:52:00,
2013-02-25 21:00:00,41.0,35.0,-100.00,North,-999,-999.0,-999.0,80,-99.99,,,-99.99,,2013-02-25 21:00:00,
2013-02-25 21:41:00,41.0,35.0,-100.00,North,-999,-999.0,-999.0,80,-99.99,,,-99.99,,2013-02-25 21:41:00,
2013-02-25 21:51:00,41.0,35.0,-100.00,North,-999,-999.0,-999.0,80,-99.99,,,-99.99,,2013-02-25 21:51:00,
2013-02-25 22:00:00,43.0,39.0,-100.00,North,-999,-999.0,-999.0,85,-99.99,,,-99.99,,2013-02-25 22:00:00,
2013-02-25 22:31:00,43.0,39.0,-100.00,North,-999,-999.0,-999.0,85,-99.99,,,-99.99,,2013-02-25 22:31:00,
2013-02-25 22:41:00,43.0,39.0,-100.00,North,-999,-999.0,-999.0,85,-99.99,,,-99.99,,2013-02-25 22:41:00,
2013-02-25 22:51:00,43.0,39.0,-100.00,North,-999,-999.0,-999.0,85,-99.99,,,-99.99,,2013-02-25 22:51:00,
2013-02-25 23:00:00,44.0,37.0,-100.00,North,-999,-999.0,-999.0,77,-99.99,,,-99.99,,2013-02-25 23:00:00,
2013-02-25 23:41:00,44.0,37.0,-100.00,North,-999,-999.0,-999.0,77,-99.99,,,-99.99,,2013-02-25 23:41:00,
2013-02-25 23:51:00,44.0,37.0,-100.00,North,-999,-999.0,-999.0,77,-99.99,,,-99.99,,2013-02-25 23:51:00,